CCA8325 ZSPD-ZLXY

Flight info

Callsign CCA8325
Flight time N/A
Altitude 36100
Route PIK93D PIKAS G330 PIMOL V14 NOBEM W73 VEMEX W163 HFE B208 ZHO H14 SHX
Aircraft A320/M-SDE3FGHIRWY/LB1

Departure

Time N/A
Airport Shanghai Pudong International Airport (ZSPD)

Arrival

Time 2026-05-04 10:05
Airport Xi'an Xianyang International Airport (ZLXY)
Time Latitude Longitude Altitude Speed Heading
2026-05-04 08:50 32.94058 115.65457 34089 ft 418 kts 308°
2026-05-04 08:50 32.95982 115.62863 34088 ft 418 kts 308°
2026-05-04 08:51 32.99202 115.58501 34085 ft 418 kts 308°
2026-05-04 08:51 33.03002 115.53308 34107 ft 418 kts 308°
2026-05-04 08:52 33.06815 115.48066 34111 ft 418 kts 308°
2026-05-04 08:52 33.10622 115.42828 34107 ft 418 kts 308°
2026-05-04 08:54 33.25847 115.21838 34098 ft 418 kts 308°
2026-05-04 08:55 33.29649 115.16574 34094 ft 418 kts 308°
2026-05-04 08:55 33.33448 115.11301 34093 ft 419 kts 308°
2026-05-04 09:01 33.69766 114.53217 34095 ft 416 kts 287°
2026-05-04 09:01 33.71526 114.46600 34096 ft 416 kts 287°
2026-05-04 09:02 33.73296 114.39986 34097 ft 416 kts 287°
2026-05-04 09:02 33.75057 114.33366 34086 ft 417 kts 287°
2026-05-04 09:03 33.76812 114.26720 34086 ft 417 kts 287°
2026-05-04 09:03 33.78568 114.20067 34076 ft 418 kts 287°
2026-05-04 09:04 33.80319 114.13392 34082 ft 419 kts 287°
2026-05-04 09:04 33.82079 114.06715 34070 ft 419 kts 287°
2026-05-04 09:05 33.83862 114.00032 34068 ft 420 kts 288°
2026-05-04 09:05 33.85672 113.93346 34074 ft 421 kts 288°
2026-05-04 09:06 33.87479 113.86647 34066 ft 421 kts 288°
2026-05-04 09:08 33.94651 113.59754 34077 ft 423 kts 288°
2026-05-04 09:08 33.96443 113.53012 34081 ft 423 kts 287°
2026-05-04 09:09 33.98227 113.46259 34074 ft 423 kts 287°
2026-05-04 09:09 34.00008 113.39503 34058 ft 423 kts 288°
2026-05-04 09:10 34.01782 113.32742 34065 ft 423 kts 288°
2026-05-04 09:10 34.03560 113.25980 34061 ft 423 kts 288°
2026-05-04 09:11 34.05372 113.19232 34055 ft 423 kts 288°
2026-05-04 09:11 34.07193 113.12479 34059 ft 423 kts 288°
2026-05-04 09:12 34.08997 113.05727 34063 ft 423 kts 288°
2026-05-04 09:14 34.14227 112.78278 34058 ft 427 kts 265°
2026-05-04 09:14 34.13544 112.71158 34039 ft 427 kts 265°
2026-05-04 09:15 34.12878 112.64025 34054 ft 428 kts 265°
2026-05-04 09:15 34.12217 112.56886 34054 ft 428 kts 265°
2026-05-04 09:17 34.09251 112.24740 34057 ft 428 kts 265°
2026-05-04 09:18 34.08631 112.17600 34055 ft 428 kts 266°
2026-05-04 09:18 34.08008 112.10462 34060 ft 428 kts 266°
2026-05-04 09:19 34.07378 112.03320 34063 ft 428 kts 266°
2026-05-04 09:19 34.06747 111.96176 34063 ft 428 kts 266°
2026-05-04 09:20 34.06104 111.89033 34059 ft 429 kts 266°
2026-05-04 09:20 34.05458 111.81886 34065 ft 429 kts 266°
2026-05-04 09:21 34.04809 111.74739 34061 ft 429 kts 266°
2026-05-04 09:21 34.04157 111.67586 34063 ft 429 kts 266°
2026-05-04 09:22 34.03500 111.60428 34060 ft 430 kts 265°
2026-05-04 09:22 34.02838 111.53268 34065 ft 430 kts 265°
2026-05-04 09:23 34.02168 111.46106 34067 ft 430 kts 265°
2026-05-04 09:23 34.01495 111.38945 34074 ft 430 kts 265°
2026-05-04 09:25 33.98768 111.10348 34071 ft 430 kts 265°
2026-05-04 09:26 33.98077 111.03181 34070 ft 431 kts 265°
2026-05-04 09:26 33.97382 110.96008 34066 ft 431 kts 265°
2026-05-04 09:27 33.96683 110.88832 34066 ft 431 kts 265°
2026-05-04 09:27 33.95972 110.81653 34070 ft 432 kts 265°
2026-05-04 09:28 33.95253 110.74471 34064 ft 432 kts 265°
2026-05-04 09:28 33.94541 110.67289 34067 ft 432 kts 265°
2026-05-04 09:29 33.93827 110.60110 34070 ft 432 kts 265°
2026-05-04 09:29 33.93139 110.52926 34068 ft 431 kts 266°
2026-05-04 09:30 33.92505 110.45743 34064 ft 431 kts 266°
2026-05-04 09:30 33.91872 110.38558 34067 ft 432 kts 266°
2026-05-04 09:31 33.91215 110.31375 34070 ft 432 kts 266°
2026-05-04 09:31 33.90549 110.24189 34071 ft 432 kts 266°
2026-05-04 09:32 33.89877 110.17004 34073 ft 432 kts 266°
2026-05-04 09:34 33.87182 109.88253 34079 ft 434 kts 266°
2026-05-04 09:34 33.86641 109.82245 34079 ft 435 kts 266°
2026-05-04 09:35 33.85883 109.73795 34070 ft 435 kts 266°
2026-05-04 09:35 33.85339 109.67775 34069 ft 436 kts 266°
2026-05-04 09:37 33.82725 109.38802 34045 ft 436 kts 266°
2026-05-04 09:38 33.82060 109.31557 34047 ft 436 kts 266°
2026-05-04 09:38 33.81397 109.24313 34042 ft 436 kts 266°
2026-05-04 09:39 33.81112 109.17096 34054 ft 428 kts 282°
2026-05-04 09:39 33.81933 109.13695 34056 ft 423 kts 296°
2026-05-04 09:39 33.83447 109.10685 34021 ft 422 kts 307°
2026-05-04 09:40 33.86686 109.04744 33935 ft 426 kts 303°
2026-05-04 09:40 33.88276 109.01727 33342 ft 425 kts 303°
2026-05-04 09:40 33.89853 108.98722 32782 ft 425 kts 303°
2026-05-04 09:41 33.91431 108.95701 32230 ft 427 kts 303°
2026-05-04 09:42 34.04275 108.77233 28388 ft 408 kts 349°
2026-05-04 09:43 34.07094 108.77058 27829 ft 406 kts
2026-05-04 09:43 34.09908 108.77242 27260 ft 405 kts
2026-05-04 09:43 34.12633 108.78028 26725 ft 404 kts 22°
2026-05-04 09:43 34.15104 108.79648 26194 ft 405 kts 29°
2026-05-04 09:44 34.17487 108.81378 25678 ft 403 kts 30°
2026-05-04 09:44 34.19878 108.83126 25156 ft 401 kts 30°
2026-05-04 09:44 34.22289 108.84889 24651 ft 399 kts 30°
2026-05-04 09:46 34.34933 109.00597 20954 ft 398 kts 92°
2026-05-04 09:46 34.34611 109.03907 20431 ft 396 kts 101°
2026-05-04 09:46 34.33667 109.07028 19915 ft 395 kts 118°
2026-05-04 09:47 34.32049 109.09632 19427 ft 393 kts 136°
2026-05-04 09:47 34.29847 109.11545 18925 ft 389 kts 154°
2026-05-04 09:49 34.16863 109.03770 15259 ft 307 kts 263°
2026-05-04 09:49 34.16726 109.01222 14756 ft 305 kts 275°
2026-05-04 09:49 34.17082 108.98695 14257 ft 307 kts 288°
2026-05-04 09:51 34.24422 108.85825 11100 ft 304 kts 307°
2026-05-04 09:51 34.25674 108.83817 10599 ft 295 kts 306°
2026-05-04 09:51 34.26878 108.81889 10104 ft 288 kts 306°
2026-05-04 09:51 34.28070 108.79982 9608 ft 281 kts 306°
2026-05-04 09:52 34.29002 108.77962 9064 ft 273 kts 284°
2026-05-04 09:52 34.29082 108.75725 8545 ft 266 kts 256°
2026-05-04 09:52 34.28315 108.73739 8045 ft 260 kts 230°
2026-05-04 09:52 34.27153 108.72164 7905 ft 241 kts 228°
2026-05-04 09:53 34.26083 108.70707 7910 ft 227 kts 228°
2026-05-04 09:53 34.25043 108.69279 7914 ft 225 kts 229°
2026-05-04 09:53 34.24006 108.67851 7745 ft 225 kts 229°
2026-05-04 09:53 34.22974 108.66431 7551 ft 224 kts 228°
2026-05-04 09:54 34.21946 108.65023 7356 ft 223 kts 227°
2026-05-04 09:54 34.20924 108.63627 7164 ft 222 kts 227°
2026-05-04 09:54 34.19899 108.62231 6984 ft 222 kts 227°
2026-05-04 09:54 34.18878 108.60839 6797 ft 221 kts 227°
2026-05-04 09:55 34.17862 108.59456 6599 ft 220 kts 227°
2026-05-04 09:55 34.16850 108.58078 6418 ft 219 kts 227°
2026-05-04 09:55 34.15840 108.56703 6224 ft 218 kts 226°
2026-05-04 09:55 34.14832 108.55331 6032 ft 218 kts 226°
2026-05-04 09:56 34.13973 108.53827 5929 ft 222 kts 246°
2026-05-04 09:56 34.13759 108.51980 5911 ft 228 kts 274°
2026-05-04 09:56 34.14303 108.50174 5904 ft 234 kts 302°
2026-05-04 09:56 34.15523 108.48879 5777 ft 238 kts 333°
2026-05-04 09:57 34.17103 108.48261 5661 ft 240 kts 343°
2026-05-04 09:57 34.18707 108.47712 5536 ft 239 kts 343°
2026-05-04 09:57 34.20295 108.47163 5415 ft 237 kts 343°
2026-05-04 09:57 34.21883 108.46658 5288 ft 236 kts 352°
2026-05-04 09:58 34.23480 108.46703 5153 ft 226 kts 14°
2026-05-04 09:58 34.24899 108.47377 5034 ft 215 kts 34°
2026-05-04 09:58 34.25999 108.48521 4912 ft 205 kts 51°
2026-05-04 10:00 34.32343 108.57222 4084 ft 193 kts 52°
2026-05-04 10:00 34.33211 108.58412 4001 ft 182 kts 52°
2026-05-04 10:02 34.38168 108.65229 3338 ft 142 kts 52°
2026-05-04 10:04 34.42618 108.71355 2095 ft 137 kts 51°
2026-05-04 10:04 34.43236 108.72215 1926 ft 135 kts 50°
2026-05-04 10:04 34.43861 108.73077 1734 ft 137 kts 52°
2026-05-04 10:04 34.44485 108.73937 1585 ft 129 kts 52°
2026-05-04 10:05 34.45006 108.74665 1578 ft 95 kts 49°
2026-05-04 10:05 34.45332 108.75107 1577 ft 46 kts 48°
2026-05-04 10:05 34.45431 108.75243 1578 ft 3 kts 49°
2026-05-04 10:05 34.45456 108.75277 1578 ft 8 kts 49°
2026-05-04 10:06 34.45500 108.75337 1578 ft 11 kts 49°
2026-05-04 10:06 34.45554 108.75413 1579 ft 13 kts 51°
2026-05-04 10:06 34.45609 108.75510 1579 ft 15 kts 63°
2026-05-04 10:08 34.45664 108.75694 1577 ft 0 kts 72°